• In Kazakhstan
  • List of Countries
  • For 7 days
  • Water Temperature
  • Satellite Maps
  • Weather Map
  • News
  • Weather Widgets
  • user-avatar
    Login

    Hourly Weather Tibissa

    Today, 18 March, Monday

    Time Temperature Precipitation Wind Pressure Humidity
    00:00 +13°C° 0 mm 3 mps 684 mmHg 32%
    01:00 +12°C° 0 mm 3 mps 684 mmHg 31%
    02:00 +12°C° 0 mm 3 mps 684 mmHg 32%
    03:00 +12°C° 0 mm 2 mps 683 mmHg 33%
    04:00 +12°C° 0 mm 2 mps 683 mmHg 34%
    05:00 +12°C° 0 mm 2 mps 683 mmHg 35%
    06:00 +10°C° 0 mm 2 mps 683 mmHg 37%
    07:00 +12°C° 0 mm 1 mps 683 mmHg 39%
    08:00 +13°C° 0 mm 2 mps 684 mmHg 37%
    09:00 +15°C° 0 mm 2 mps 685 mmHg 35%
    10:00 +17°C° 0 mm 2 mps 685 mmHg 33%
    11:00 +18°C° 0 mm 3 mps 685 mmHg 32%
    12:00 +19°C° 0 mm 3 mps 686 mmHg 32%
    13:00 +19°C° 0 mm 5 mps 686 mmHg 35%
    14:00 +19°C° 0.2 mm 5 mps 685 mmHg 39%
    15:00 +17°C° 0.2 mm 6 mps 685 mmHg 42%
    16:00 +17°C° 0.2 mm 6 mps 685 mmHg 46%
    17:00 +15°C° 1.4 mm 6 mps 685 mmHg 56%
    18:00 +13°C° 1.4 mm 6 mps 685 mmHg 67%
    19:00 +11°C° 1.4 mm 6 mps 685 mmHg 77%
    20:00 +10°C° 0.5 mm 6 mps 685 mmHg 79%
    21:00 +9°C° 0.5 mm 5 mps 685 mmHg 82%
    22:00 +8°C° 0.5 mm 5 mps 686 mmHg 85%
    23:00 +8°C° 0.1 mm 5 mps 686 mmHg 84%

    Tomorrow, 19 March, Tuesday

    Time Temperature Precipitation Wind Pressure Humidity
    00:00 +7°C° 0.1 mm 4 mps 685 mmHg 84%
    01:00 +7°C° 0.1 mm 4 mps 685 mmHg 84%
    02:00 +6°C° 0 mm 4 mps 685 mmHg 85%
    03:00 +6°C° 0 mm 4 mps 685 mmHg 85%
    04:00 +5°C° 0 mm 3 mps 684 mmHg 86%
    05:00 +5°C° 0 mm 3 mps 684 mmHg 87%
    06:00 +4°C° 0 mm 3 mps 684 mmHg 88%
    07:00 +4°C° 0 mm 3 mps 684 mmHg 89%
    08:00 +5°C° 0 mm 4 mps 684 mmHg 82%
    09:00 +6°C° 0 mm 4 mps 685 mmHg 75%
    10:00 +7°C° 0 mm 5 mps 685 mmHg 68%
    11:00 +8°C° 0 mm 5 mps 685 mmHg 64%
    12:00 +9°C° 0 mm 6 mps 685 mmHg 59%
    13:00 +10°C° 0 mm 6 mps 685 mmHg 55%
    14:00 +10°C° 0.1 mm 6 mps 684 mmHg 57%
    15:00 +9°C° 0.1 mm 6 mps 684 mmHg 60%
    16:00 +9°C° 0.1 mm 6 mps 684 mmHg 62%
    17:00 +8°C° 0.6 mm 6 mps 684 mmHg 68%
    18:00 +7°C° 0.6 mm 6 mps 684 mmHg 74%
    19:00 +5°C° 0.6 mm 6 mps 684 mmHg 80%
    20:00 +4°C° 0.3 mm 6 mps 684 mmHg 78%
    21:00 +4°C° 0.3 mm 6 mps 685 mmHg 77%
    22:00 +4°C° 0.3 mm 6 mps 685 mmHg 76%
    23:00 +3°C° 1 mm 6 mps 685 mmHg 79%

    Day after tomorrow, 20 March, Wednesday

    Time Temperature Precipitation Wind Pressure Humidity
    00:00 +3°C° 1 mm 6 mps 685 mmHg 82%
    01:00 +3°C° 1 mm 5 mps 685 mmHg 85%
    02:00 +2°C° 0.9 mm 5 mps 685 mmHg 86%
    03:00 +2°C° 0.9 mm 5 mps 684 mmHg 86%
    04:00 +2°C° 0.9 mm 5 mps 684 mmHg 86%
    05:00 +2°C° 0.4 mm 5 mps 684 mmHg 86%
    06:00 +2°C° 0.4 mm 5 mps 684 mmHg 86%
    07:00 +3°C° 0.4 mm 4 mps 684 mmHg 86%
    08:00 +3°C° 0.4 mm 4 mps 684 mmHg 86%
    09:00 +4°C° 0.4 mm 4 mps 685 mmHg 85%
    10:00 +4°C° 0.4 mm 4 mps 685 mmHg 84%
    11:00 +5°C° 0.5 mm 4 mps 685 mmHg 82%
    12:00 +5°C° 0.5 mm 4 mps 685 mmHg 81%
    13:00 +7°C° 0.5 mm 3 mps 685 mmHg 79%
    14:00 +6°C° 0.4 mm 4 mps 684 mmHg 78%
    15:00 +6°C° 0.4 mm 4 mps 684 mmHg 78%
    16:00 +6°C° 0.4 mm 4 mps 684 mmHg 77%
    17:00 +6°C° 0.4 mm 4 mps 684 mmHg 81%
    18:00 +5°C° 0.4 mm 4 mps 684 mmHg 85%
    19:00 +5°C° 0.4 mm 4 mps 684 mmHg 89%
    20:00 +5°C° 0.4 mm 4 mps 684 mmHg 90%
    21:00 +5°C° 0.4 mm 4 mps 685 mmHg 90%
    22:00 +5°C° 0.4 mm 4 mps 685 mmHg 91%
    23:00 +4°C° 0.8 mm 4 mps 685 mmHg 91%

    21 March, Thursday

    Time Temperature Precipitation Wind Pressure Humidity
    00:00 +4°C° 0.8 mm 4 mps 684 mmHg 91%
    01:00 +4°C° 0.8 mm 4 mps 684 mmHg 91%
    02:00 +4°C° 1.1 mm 4 mps 684 mmHg 91%
    03:00 +4°C° 1.1 mm 4 mps 683 mmHg 92%
    04:00 +4°C° 1.1 mm 4 mps 683 mmHg 92%
    05:00 +4°C° 3.3 mm 4 mps 683 mmHg 93%
    06:00 +4°C° 3.3 mm 4 mps 683 mmHg 93%
    07:00 +4°C° 3.3 mm 4 mps 683 mmHg 94%
    08:00 +3°C° 4.1 mm 5 mps 683 mmHg 94%
    09:00 +3°C° 4.1 mm 5 mps 682 mmHg 93%
    10:00 +3°C° 4.1 mm 6 mps 682 mmHg 92%
    11:00 +3°C° 5 mm 6 mps 682 mmHg 93%
    12:00 +3°C° 5 mm 6 mps 682 mmHg 93%
    13:00 +3°C° 5 mm 6 mps 681 mmHg 94%
    14:00 +4°C° 4.3 mm 6 mps 681 mmHg 94%
    15:00 +5°C° 4.3 mm 5 mps 680 mmHg 95%
    16:00 +6°C° 4.3 mm 5 mps 680 mmHg 95%
    17:00 +6°C° 3.2 mm 5 mps 680 mmHg 96%
    18:00 +6°C° 3.2 mm 4 mps 680 mmHg 96%
    19:00 +6°C° 3.2 mm 4 mps 680 mmHg 97%
    20:00 +6°C° 1.6 mm 4 mps 681 mmHg 97%
    21:00 +6°C° 1.6 mm 4 mps 681 mmHg 96%
    22:00 +7°C° 1.6 mm 3 mps 681 mmHg 96%
    23:00 +7°C° 0.2 mm 3 mps 682 mmHg 95%

    22 March, Friday

    Time Temperature Precipitation Wind Pressure Humidity
    00:00 +7°C° 0.2 mm 3 mps 682 mmHg 94%
    01:00 +7°C° 0.2 mm 2 mps 682 mmHg 92%
    02:00 +7°C° 0.1 mm 2 mps 682 mmHg 91%
    03:00 +7°C° 0.1 mm 2 mps 682 mmHg 90%
    04:00 +6°C° 0.1 mm 2 mps 682 mmHg 88%
    05:00 +6°C° 0 mm 2 mps 682 mmHg 88%
    06:00 +6°C° 0 mm 2 mps 683 mmHg 88%
    07:00 +5°C° 0 mm 2 mps 683 mmHg 88%
    08:00 +7°C° 0.1 mm 3 mps 684 mmHg 80%
    09:00 +7°C° 0.1 mm 4 mps 685 mmHg 72%
    10:00 +10°C° 0.1 mm 4 mps 685 mmHg 64%
    11:00 +9°C° 0.4 mm 5 mps 685 mmHg 59%
    12:00 +10°C° 0.4 mm 5 mps 685 mmHg 55%
    13:00 +11°C° 0.4 mm 6 mps 686 mmHg 50%
    14:00 +11°C° 0.1 mm 6 mps 685 mmHg 48%
    15:00 +12°C° 0.1 mm 5 mps 685 mmHg 46%
    16:00 +12°C° 0.1 mm 5 mps 685 mmHg 44%
    17:00 +11°C° 0 mm 4 mps 686 mmHg 47%
    18:00 +10°C° 0 mm 3 mps 686 mmHg 51%
    19:00 +9°C° 0 mm 2 mps 686 mmHg 55%
    20:00 +9°C° 0 mm 2 mps 687 mmHg 59%
    21:00 +9°C° 0 mm 1 mps 687 mmHg 62%
    22:00 +7°C° 0 mm 0 mps 687 mmHg 65%
    23:00 +7°C° 0 mm 0 mps 688 mmHg 68%

    23 March, Saturday

    Time Temperature Precipitation Wind Pressure Humidity
    00:00 +7°C° 0 mm 0 mps 688 mmHg 71%
    01:00 +6°C° 0 mm 0 mps 688 mmHg 74%
    02:00 +7°C° 0 mm 1 mps 688 mmHg 74%
    03:00 +7°C° 0 mm 1 mps 688 mmHg 73%
    04:00 +6°C° 0 mm 2 mps 688 mmHg 73%
    05:00 +6°C° 0 mm 2 mps 688 mmHg 77%
    06:00 +5°C° 0 mm 2 mps 688 mmHg 81%
    07:00 +5°C° 0 mm 2 mps 688 mmHg 84%
    08:00 +7°C° 0 mm 3 mps 689 mmHg 77%
    09:00 +9°C° 0 mm 3 mps 689 mmHg 69%
    10:00 +10°C° 0 mm 3 mps 690 mmHg 62%
    11:00 +11°C° 0 mm 4 mps 690 mmHg 57%
    12:00 +12°C° 0 mm 4 mps 690 mmHg 53%
    13:00 +13°C° 0 mm 4 mps 690 mmHg 48%
    14:00 +13°C° 0 mm 4 mps 690 mmHg 50%
    15:00 +13°C° 0 mm 4 mps 689 mmHg 52%
    16:00 +14°C° 0 mm 4 mps 689 mmHg 54%
    17:00 +13°C° 0 mm 4 mps 689 mmHg 62%
    18:00 +12°C° 0 mm 3 mps 689 mmHg 70%
    19:00 +11°C° 0 mm 3 mps 689 mmHg 78%
    20:00 +10°C° 0 mm 2 mps 689 mmHg 82%
    21:00 +9°C° 0 mm 2 mps 690 mmHg 87%
    22:00 +9°C° 0 mm 2 mps 690 mmHg 92%
    23:00 +9°C° 0 mm 2 mps 690 mmHg 92%
    Show more